User: anonymous   Login
Location: Unspecified
(0.0000°N, 0.0000°E)
Time: 07:14:37
(UTC+00:00)
Language:

PERSEUS M2 - Orbit

View from above orbital plane
View from above orbital plane
View from above satellite
View from above satellite

Ground track
Ground track

The orbit data is extracted from the following two-line orbital elements,

1 40037U 14033AD  17178.69683823 +.00000071 +00000-0 +14416-4 0  9992
2 40037 097.9117 087.4127 0012995 271.7622 088.2105 14.86228612163376
Epoch (UTC): 27 June 2017 16:43:26
Eccentricity: 0.0012995
inclination: 97.9117°
perigee height: 600 km
apogee height: 619 km
right ascension of ascending node: 87.4127°
argument of perigee: 271.7622°
revolutions per day: 14.86228612
mean anomaly at epoch: 88.2105°
orbit number at epoch: 16337

The dashed part of the orbit path shows where the satellite is in the earth's shadow,  

DLR